[[{"header":{"parameterUnit":"m.s-1","parameterCategory":1,"la1":30.2991,"la2":30.254,"lo1":-89.0895,"lo2":-89.0444,"dy":0.0017,"dx":0.0017,"nx":28,"ny":28,"refTime":"2025-09-12T09:00:00:Z","depth":0,"parameterNumber":2,"parameterNumberName":"U-component_of_WINDS"},"data":[0,0,0,0,0,0,0,0,0,0,0,0,0,0,0,0,0,0,0,0,0,0,0,0,0,0,0,0,0,0,0,0,0,0,0,0,0,0,0,0,0,0,0,0,0,0,0,0,0,0,0,0,0,0,0,0,0,0,-0.0841,-0.0841,0,-0.0849,-0.0849,-0.0849,-0.0841,-0.084,-0.084,-0.084,-0.0849,-0.0849,-0.085,0,0,0,0,0,0,0,0,0,0,0,0,0,-0.0818,-0.0819,-0.0841,-0.0841,-0.0841,-0.0849,-0.0849,-0.0849,-0.0841,-0.084,-0.084,-0.084,-0.0849,-0.0849,-0.085,0,0,0,0,0,0,0,0,0,0,0,0,0,-0.0827,-0.0819,-0.084,-0.0838,-0.0837,-0.0849,-0.0849,-0.0849,-0.0841,-0.084,-0.084,-0.0839,-0.0848,-0.0849,-0.085,-0.0865,0,0,-0.0853,-0.0853,0,0,0,0,0,0,0,0,-0.0827,-0.0828,-0.0838,-0.0838,-0.0838,-0.0843,-0.0845,-0.0855,-0.0841,-0.084,-0.084,-0.0839,-0.0847,-0.0848,-0.0851,-0.0866,-0.0866,-0.0853,-0.0853,-0.0854,-0.0854,0,0,0,0,0,0,0,-0.0826,-0.0828,-0.0844,-0.0838,-0.0838,-0.0836,-0.0837,-0.0846,-0.0846,-0.084,-0.0839,-0.084,-0.0847,-0.085,-0.0851,-0.0866,-0.0853,-0.0853,-0.0854,-0.0854,-0.0895,-0.0895,0,0,0,0,0,0,-0.0826,-0.0827,-0.0844,-0.0844,-0.0831,-0.0837,-0.0838,-0.0842,-0.0846,-0.0846,-0.0841,-0.084,-0.0849,-0.085,-0.0851,-0.087,-0.0854,-0.0854,-0.0855,-0.0894,-0.0895,-0.0895,0,0,0,0,0,0,-0.0825,-0.0827,-0.0843,-0.0836,-0.0837,-0.0838,-0.0843,-0.0842,-0.0845,-0.0847,-0.0847,-0.0844,-0.0849,-0.085,-0.0862,-0.087,-0.0855,-0.0855,-0.0893,-0.0894,-0.0895,-0.0907,0,0,0,0,0,0,-0.0825,-0.0827,-0.0833,-0.0836,-0.0838,-0.0853,-0.0843,-0.0843,-0.0847,-0.0846,-0.085,-0.085,-0.0848,-0.0861,-0.0863,-0.0871,-0.0856,-0.0893,-0.0894,-0.0895,-0.0906,-0.0908,-0.091,0,0,0,0,0,-0.0824,-0.0836,-0.0833,-0.0835,-0.0845,-0.0854,-0.0855,-0.0853,-0.0847,-0.0853,-0.0854,-0.085,-0.0869,-0.0862,-0.0864,-0.0873,-0.0892,-0.0893,-0.0895,-0.0905,-0.0908,-0.091,0,0,0,0,0,0,-0.0833,-0.0836,-0.0833,-0.0846,-0.085,-0.0852,-0.0859,-0.0856,-0.0862,-0.0861,-0.0858,-0.0859,-0.0872,-0.0874,-0.0866,-0.0888,-0.088,-0.0881,-0.0887,-0.089,-0.0892,-0.0891,-0.0857,0,0,0,0,0,-0.0837,-0.0844,-0.0846,-0.0857,-0.0859,-0.0859,-0.0863,-0.0861,-0.0865,-0.0867,-0.0869,-0.0873,-0.088,-0.0885,-0.0891,-0.0906,-0.0908,-0.0913,-0.0916,-0.0917,-0.0919,-0.0928,-0.0931,-0.09,-0.09,-0.09,0,0,-0.0844,-0.0847,-0.0851,-0.0859,-0.0862,-0.087,-0.086,-0.0869,-0.0875,-0.0868,-0.088,-0.0881,-0.0886,-0.09,-0.0906,-0.0901,-0.0928,-0.0919,-0.092,-0.0921,-0.093,-0.0933,-0.0935,-0.0901,-0.09,-0.09,0,0,-0.0862,-0.0864,-0.0874,-0.0877,-0.0882,-0.0882,-0.0884,-0.0888,-0.0888,-0.09,-0.0895,-0.0903,-0.0915,-0.0918,-0.0922,-0.0942,-0.0938,-0.0944,-0.0956,-0.0964,-0.0967,-0.0969,-0.0977,-0.098,-0.0946,-0.0946,-0.0946,0,-0.0871,-0.0882,-0.088,-0.0889,-0.0893,-0.0887,-0.0898,-0.0901,-0.0907,-0.091,-0.0905,-0.0921,-0.0924,-0.0939,-0.0944,-0.0947,-0.095,-0.0944,-0.0967,-0.0969,-0.0971,-0.0979,-0.0982,-0.0947,-0.0947,-0.0946,-0.0946,0,-0.0893,-0.0901,-0.0909,-0.0915,-0.092,-0.093,-0.0929,-0.0935,-0.0933,-0.0934,-0.0946,-0.0949,-0.0956,-0.096,-0.0958,-0.0975,-0.0972,-0.0967,-0.0958,-0.0975,-0.0982,-0.0985,-0.0948,-0.0947,-0.0947,-0.0947,0,0,-0.0916,-0.0922,-0.0925,-0.0928,-0.0933,-0.094,-0.095,-0.0957,-0.0962,-0.0967,-0.0976,-0.0986,-0.0982,-0.0986,-0.0985,-0.0992,-0.1009,-0.0986,-0.0986,-0.0991,-0.1029,-0.1034,-0.1037,-0.1007,-0.1007,-0.1008,-0.1029,0,-0.0935,-0.0952,-0.095,-0.0967,-0.0975,-0.097,-0.0979,-0.0983,-0.0984,-0.0991,-0.0993,-0.1001,-0.0994,-0.0996,-0.1004,-0.1006,-0.1017,-0.1004,-0.1016,-0.1016,-0.1015,-0.1041,-0.1045,-0.1065,-0.1032,-0.1033,-0.1033,0,-0.0958,-0.0965,-0.0982,-0.0986,-0.099,-0.0997,-0.1005,-0.1012,-0.1017,-0.1017,-0.1022,-0.102,-0.103,-0.1021,-0.1036,-0.1027,-0.1032,-0.1034,-0.1035,-0.1036,-0.1026,-0.1044,-0.1072,-0.1075,-0.1037,-0.1037,-0.1036,0,-0.0975,-0.0987,-0.0999,-0.1002,-0.1008,-0.1014,-0.1016,-0.1021,-0.1026,-0.1032,-0.1036,-0.1043,-0.1048,-0.1054,-0.1054,-0.1047,-0.107,-0.106,-0.1071,-0.1071,-0.1076,-0.1076,-0.1106,-0.1078,-0.1078,-0.1078,-0.1078,0,-0.0996,-0.1007,-0.1007,-0.1015,-0.1027,-0.1026,-0.1038,-0.104,-0.1044,-0.1053,-0.1049,-0.1057,-0.1056,-0.1064,-0.1064,-0.1077,-0.1079,-0.108,-0.108,-0.1081,-0.1081,-0.1084,-0.1083,-0.1079,-0.1079,-0.1078,-0.1078,0,-0.1017,-0.1017,-0.103,-0.1035,-0.1036,-0.1045,-0.1049,-0.1056,-0.1057,-0.1068,-0.1071,-0.1072,-0.1082,-0.1082,-0.1093,-0.1093,-0.111,-0.1108,-0.1108,-0.1108,-0.1119,-0.1118,-0.1153,-0.1158,-0.1126,-0.1126,-0.1126,0,-0.103,-0.1039,-0.1044,-0.105,-0.1053,-0.1061,-0.1066,-0.1065,-0.1071,-0.1078,-0.1085,-0.1094,-0.1102,-0.1117,-0.112,-0.1128,-0.1127,-0.1139,-0.1128,-0.1129,-0.1128,-0.1128,-0.1129,-0.1141,-0.1141,-0.1141,-0.1142,0,-0.1055,-0.1055,-0.1063,-0.1071,-0.1077,-0.1083,-0.1089,-0.1093,-0.1093,-0.11,-0.111,-0.1116,-0.1127,-0.1137,-0.1145,-0.1148,-0.1145,-0.1145,-0.1148,-0.1149,-0.1149,-0.115,-0.1114,-0.1144,-0.1144,-0.1144,-0.1144,-0.1143,-0.1073,-0.1081,-0.1086,-0.1095,-0.1099,-0.1105,-0.1113,-0.1115,-0.1123,-0.1132,-0.1131,-0.1142,-0.1148,-0.1159,-0.1163,-0.1172,-0.1169,-0.1173,-0.1174,-0.1175,-0.1177,-0.1147,-0.1174,-0.1174,-0.1174,-0.1174,-0.1174,0,-0.1099,-0.1102,-0.111,-0.1118,-0.1126,-0.1122,-0.1128,-0.1135,-0.1145,-0.115,-0.1158,-0.1169,-0.1179,-0.1182,-0.1192,-0.1198,-0.1197,-0.1201,-0.1201,-0.1202,-0.1179,-0.1176,-0.1202,-0.1202,-0.1202,-0.1202,-0.1202,-0.1202,-0.1113,-0.1126,-0.1126,-0.1142,-0.1145,-0.1156,-0.116,-0.1166,-0.117,-0.1184,-0.1192,-0.1194,-0.1199,-0.1209,-0.1217,-0.1218,-0.1222,-0.1227,-0.1227,-0.1206,-0.1203,-0.1201,-0.1198,-0.1227,-0.1227,-0.1249,-0.1249,-0.1249]},{"header":{"parameterUnit":"m.s-1","parameterCategory":1,"la1":30.2991,"la2":30.254,"lo1":-89.0895,"lo2":-89.0444,"dy":0.0017,"dx":0.0017,"nx":28,"ny":28,"refTime":"2025-09-12T09:00:00:Z","depth":0,"parameterNumber":3,"parameterNumberName":"V-component_of_WINDS"},"data":[0,0,0,0,0,0,0,0,0,0,0,0,0,0,0,0,0,0,0,0,0,0,0,0,0,0,0,0,0,0,0,0,0,0,0,0,0,0,0,0,0,0,0,0,0,0,0,0,0,0,0,0,0,0,0,0,0,0,1.4093,1.4092,0,1.4003,1.4002,1.4001,1.3939,1.3938,1.3938,1.3937,1.3841,1.3839,1.3837,0,0,0,0,0,0,0,0,0,0,0,0,0,1.4206,1.4204,1.4093,1.4092,1.409,1.4003,1.4002,1.4,1.3939,1.3938,1.3938,1.3937,1.3842,1.3839,1.3837,0,0,0,0,0,0,0,0,0,0,0,0,0,1.414,1.4204,1.4093,1.4049,1.4044,1.4003,1.4002,1.4,1.3939,1.3938,1.3937,1.3937,1.3843,1.384,1.3836,1.383,0,0,1.3827,1.3825,0,0,0,0,0,0,0,0,1.4144,1.4136,1.4057,1.4052,1.4047,1.3981,1.4006,1.3943,1.3939,1.3979,1.3937,1.3936,1.3888,1.3881,1.3866,1.3826,1.3822,1.3826,1.3824,1.3823,1.3822,0,0,0,0,0,0,0,1.4149,1.414,1.4057,1.4056,1.4049,1.4032,1.4022,1.3994,1.3938,1.3975,1.3971,1.3961,1.3885,1.3869,1.3863,1.382,1.3826,1.3824,1.3822,1.382,1.3768,1.3768,0,0,0,0,0,0,1.4161,1.4144,1.406,1.4054,1.4095,1.4031,1.402,1.4003,1.3938,1.3928,1.3962,1.3958,1.3875,1.3867,1.3859,1.3846,1.3823,1.382,1.3818,1.3767,1.3768,1.3768,0,0,0,0,0,0,1.4164,1.4154,1.4063,1.4098,1.4085,1.403,1.4011,1.4001,1.3985,1.3928,1.3917,1.3956,1.3874,1.3864,1.3838,1.3842,1.3819,1.3816,1.3767,1.3767,1.3768,1.3821,0,0,0,0,0,0,1.4167,1.4155,1.4154,1.4098,1.4083,1.4045,1.4012,1.4,1.398,1.3975,1.392,1.391,1.3872,1.3843,1.3834,1.3837,1.3813,1.3766,1.3767,1.3768,1.3818,1.3823,1.3827,0,0,0,0,0,1.4171,1.4172,1.4154,1.4144,1.4081,1.4046,1.4037,1.3995,1.3981,1.3978,1.3941,1.3911,1.3843,1.3841,1.3831,1.3832,1.3765,1.3767,1.3768,1.3816,1.3822,1.3827,0,0,0,0,0,0,1.4229,1.4164,1.4143,1.4126,1.4092,1.4035,1.403,1.4003,1.3971,1.3968,1.3916,1.3904,1.3883,1.3855,1.3853,1.3822,1.38,1.38,1.3841,1.3846,1.385,1.3857,1.3811,0,0,0,0,0,1.4239,1.4218,1.4162,1.4152,1.4136,1.4086,1.4069,1.404,1.4002,1.3987,1.3948,1.3911,1.388,1.3862,1.3831,1.3814,1.38,1.381,1.3815,1.3819,1.3818,1.3805,1.3808,1.3772,1.3772,1.3772,0,0,1.4261,1.4223,1.4212,1.4162,1.4132,1.4109,1.4074,1.4052,1.4034,1.3983,1.3956,1.3926,1.3881,1.3859,1.3847,1.3835,1.3825,1.382,1.3824,1.3821,1.3806,1.381,1.3813,1.3773,1.3773,1.3773,0,0,1.4289,1.4259,1.4246,1.4217,1.4172,1.4139,1.4136,1.4082,1.4061,1.4033,1.3994,1.397,1.392,1.3889,1.3867,1.388,1.3851,1.3872,1.3895,1.3883,1.3885,1.3888,1.3891,1.3893,1.3872,1.3872,1.3872,0,1.4321,1.4286,1.4243,1.4223,1.4201,1.4154,1.414,1.4113,1.406,1.4045,1.4033,1.3967,1.3934,1.3903,1.3906,1.389,1.3883,1.3878,1.3889,1.3891,1.3892,1.3894,1.3896,1.3875,1.3874,1.3874,1.3874,0,1.4327,1.4304,1.4299,1.4249,1.4227,1.421,1.4162,1.4144,1.4116,1.4084,1.4055,1.4013,1.3971,1.3962,1.3935,1.3926,1.392,1.3899,1.3876,1.3899,1.39,1.3901,1.3878,1.3877,1.3877,1.3876,0,0,1.4389,1.4315,1.4314,1.429,1.4236,1.4216,1.4196,1.4157,1.4141,1.4106,1.4086,1.4044,1.4023,1.3998,1.3966,1.3956,1.3967,1.3935,1.3933,1.3941,1.3953,1.3968,1.397,1.3947,1.3947,1.3947,1.3956,0,1.4408,1.437,1.433,1.4305,1.4282,1.4236,1.4218,1.4182,1.4151,1.4124,1.4089,1.4059,1.4035,1.4019,1.4007,1.3968,1.3968,1.3967,1.3926,1.3926,1.3938,1.3971,1.3988,1.3998,1.3956,1.3956,1.3956,0,1.4424,1.4392,1.4365,1.4312,1.43,1.4285,1.4245,1.4221,1.4178,1.4156,1.4127,1.4093,1.4067,1.4048,1.401,1.401,1.399,1.3969,1.3968,1.3962,1.3942,1.3964,1.4,1.4001,1.3957,1.3957,1.3957,0,1.447,1.4419,1.4396,1.4378,1.4315,1.4305,1.4278,1.4235,1.4213,1.4177,1.4162,1.4124,1.4102,1.4072,1.4028,1.4018,1.3994,1.3971,1.3972,1.3974,1.3969,1.397,1.4001,1.3959,1.3959,1.3959,1.3959,0,1.4495,1.448,1.4416,1.4402,1.4383,1.4336,1.4318,1.4287,1.4248,1.4226,1.4184,1.4163,1.4107,1.4079,1.4044,1.4016,1.4007,1.3987,1.3978,1.399,1.3993,1.3976,1.3974,1.3959,1.3959,1.3959,1.3959,0,1.4543,1.45,1.4471,1.4414,1.44,1.4388,1.4338,1.4322,1.4288,1.4259,1.425,1.4196,1.416,1.4113,1.4063,1.4039,1.4016,1.4002,1.4031,1.4025,1.4028,1.4028,1.4049,1.4049,1.4008,1.4009,1.4009,0,1.4561,1.4548,1.449,1.4472,1.4447,1.4419,1.4397,1.4349,1.4327,1.4276,1.4265,1.4227,1.4194,1.4139,1.4094,1.4054,1.4038,1.4048,1.4032,1.4044,1.4036,1.4037,1.4035,1.4052,1.4053,1.4054,1.4054,0,1.4596,1.4575,1.4545,1.4508,1.4482,1.445,1.4415,1.4403,1.4347,1.4324,1.4288,1.4262,1.4211,1.4172,1.4127,1.4097,1.4065,1.406,1.4057,1.407,1.4086,1.4076,1.404,1.4059,1.4059,1.4058,1.4058,1.4058,1.4629,1.4615,1.4571,1.4539,1.4508,1.4476,1.4457,1.442,1.439,1.4345,1.4318,1.4283,1.4237,1.4173,1.4145,1.4114,1.4102,1.41,1.4099,1.4099,1.4102,1.4092,1.4106,1.4106,1.4106,1.4105,1.4105,0,1.4661,1.4631,1.4601,1.4554,1.4528,1.4502,1.4462,1.4441,1.4411,1.4372,1.434,1.4297,1.4259,1.4211,1.4169,1.4154,1.4138,1.4145,1.4145,1.4138,1.4116,1.4121,1.4158,1.4158,1.4158,1.4158,1.4158,1.4158,1.4675,1.4649,1.4623,1.4581,1.455,1.4515,1.4494,1.4464,1.4433,1.4387,1.4356,1.4325,1.4281,1.4236,1.4199,1.4185,1.4171,1.4182,1.4164,1.4144,1.414,1.4135,1.414,1.4179,1.4179,1.4187,1.4188,1.4188]}]]